User: anonymous   Login
Location: Poughquag
(41.6090°N, 73.6820°W)
Time: 21:56:39
(UTC-05:00)
Language:

deb Explorer IX - Orbit

View from above orbital plane
View from above orbital plane
View from above satellite
View from above satellite

Ground track
Ground track

The orbit data is extracted from the following two-line orbital elements,

1 00085U 61004C   21018.28198449  .00002993  00000-0  62726-3 0  9990
2 00085  38.7755   4.3887 0394305 132.4241 231.0566 14.21547047961667
Epoch (UTC): 18 January 2021 06:46:03
Eccentricity: 0.0394305
inclination: 38.7755°
perigee height: 536 km
apogee height: 1104 km
right ascension of ascending node: 4.3887°
argument of perigee: 132.4241°
revolutions per day: 14.21547047
mean anomaly at epoch: 231.0566°
orbit number at epoch: 96166

The dashed part of the orbit path shows where the satellite is in the earth's shadow,  

DLR